[[{"header":{"parameterUnit":"m.s-1","parameterCategory":1,"la1":30.2991,"la2":30.254,"lo1":-89.0895,"lo2":-89.0444,"dy":0.0017,"dx":0.0017,"nx":28,"ny":28,"refTime":"2024-06-18T09:00:00:Z","depth":0,"parameterNumber":2,"parameterNumberName":"U-component_of_WINDS"},"data":[0,0,0,0,0,0,0,0,0,0,0,0,0,0,0,0,0,0,0,0,0,0,0,0,0,0,0,0,0,0,0,0,0,0,0,0,0,0,0,0,0,0,0,0,0,0,0,0,0,0,0,0,0,0,0,0,0,0,-10.5801,-10.5801,0,-10.5827,-10.5827,-10.5827,-10.5628,-10.5623,-10.5617,-10.5612,-10.5637,-10.5643,-10.5649,0,0,0,0,0,0,0,0,0,0,0,0,0,-10.558,-10.5585,-10.5801,-10.5801,-10.5802,-10.5827,-10.5827,-10.5827,-10.5629,-10.5622,-10.5616,-10.5609,-10.5635,-10.5642,-10.5649,0,0,0,0,0,0,0,0,0,0,0,0,0,-10.5648,-10.5587,-10.5801,-10.5706,-10.5698,-10.5827,-10.5827,-10.5827,-10.5631,-10.5622,-10.5614,-10.5606,-10.5633,-10.5641,-10.565,-10.5871,0,0,-10.5677,-10.5681,0,0,0,0,0,0,0,0,-10.5645,-10.5656,-10.5719,-10.5713,-10.5704,-10.5716,-10.5758,-10.5842,-10.5633,-10.5656,-10.5612,-10.5602,-10.567,-10.5675,-10.5698,-10.5872,-10.5873,-10.5678,-10.5683,-10.5687,-10.5689,0,0,0,0,0,0,0,-10.564,-10.5654,-10.5811,-10.5721,-10.5711,-10.5662,-10.5662,-10.5773,-10.5709,-10.5653,-10.5639,-10.5645,-10.5664,-10.569,-10.5697,-10.5874,-10.5677,-10.5685,-10.5691,-10.5694,-10.6231,-10.624,0,0,0,0,0,0,-10.5648,-10.5652,-10.581,-10.5812,-10.5653,-10.5673,-10.5673,-10.572,-10.5708,-10.5698,-10.5652,-10.5635,-10.5679,-10.5687,-10.5698,-10.5955,-10.5687,-10.5695,-10.57,-10.6222,-10.6233,-10.6243,0,0,0,0,0,0,-10.5644,-10.5664,-10.5809,-10.5728,-10.5743,-10.5685,-10.574,-10.5725,-10.5751,-10.5707,-10.5694,-10.569,-10.5673,-10.5685,-10.583,-10.5953,-10.5699,-10.5707,-10.6212,-10.6226,-10.6238,-10.6472,0,0,0,0,0,0,-10.5639,-10.5664,-10.5747,-10.5731,-10.5748,-10.5942,-10.5748,-10.5732,-10.5767,-10.5746,-10.5739,-10.573,-10.5667,-10.5818,-10.5839,-10.596,-10.5714,-10.62,-10.6218,-10.6234,-10.6453,-10.6492,-10.6525,0,0,0,0,0,-10.5632,-10.5812,-10.5752,-10.5773,-10.5851,-10.5949,-10.5958,-10.5882,-10.5778,-10.5861,-10.5833,-10.5731,-10.5937,-10.5834,-10.5856,-10.5982,-10.6192,-10.6213,-10.6233,-10.6437,-10.6484,-10.6524,0,0,0,0,0,0,-10.5842,-10.5808,-10.5741,-10.5922,-10.594,-10.5915,-10.6017,-10.5935,-10.5983,-10.5961,-10.5865,-10.5865,-10.6026,-10.6019,-10.5905,-10.6196,-10.6046,-10.6072,-10.6194,-10.6239,-10.6274,-10.6271,-10.5721,0,0,0,0,0,-10.591,-10.5993,-10.5958,-10.6121,-10.6133,-10.6075,-10.6115,-10.6055,-10.607,-10.6076,-10.6058,-10.6076,-10.6145,-10.6192,-10.6253,-10.6453,-10.6448,-10.655,-10.6587,-10.6616,-10.6638,-10.6743,-10.6788,-10.631,-10.6309,-10.6309,0,0,-10.605,-10.6041,-10.6099,-10.6163,-10.617,-10.6258,-10.6082,-10.6182,-10.6246,-10.6091,-10.6225,-10.6215,-10.6228,-10.6402,-10.6477,-10.6401,-10.6771,-10.6642,-10.6666,-10.6672,-10.6769,-10.6814,-10.6855,-10.6323,-10.6321,-10.6319,0,0,-10.6349,-10.6352,-10.6487,-10.6499,-10.6512,-10.6472,-10.6506,-10.6494,-10.648,-10.6615,-10.65,-10.6576,-10.6697,-10.6711,-10.6734,-10.7044,-10.6951,-10.7067,-10.7253,-10.7357,-10.7395,-10.7427,-10.7536,-10.7577,-10.709,-10.709,-10.7091,0,-10.652,-10.6648,-10.6567,-10.6675,-10.6706,-10.6572,-10.6709,-10.6724,-10.6757,-10.6781,-10.6696,-10.6845,-10.6845,-10.702,-10.7096,-10.712,-10.7154,-10.7065,-10.7396,-10.7428,-10.7458,-10.756,-10.7602,-10.7104,-10.7102,-10.7101,-10.71,0,-10.6858,-10.6949,-10.7057,-10.7093,-10.7137,-10.7259,-10.7196,-10.7251,-10.7189,-10.7159,-10.7298,-10.7295,-10.7352,-10.739,-10.733,-10.7557,-10.7509,-10.7413,-10.7259,-10.7518,-10.7613,-10.7652,-10.7124,-10.7119,-10.7115,-10.7111,0,0,-10.7286,-10.7278,-10.7319,-10.7334,-10.7341,-10.7409,-10.7527,-10.7584,-10.7632,-10.7661,-10.7755,-10.7863,-10.7773,-10.78,-10.7741,-10.7833,-10.8077,-10.7724,-10.7722,-10.7788,-10.8326,-10.8396,-10.8443,-10.8018,-10.8025,-10.8031,-10.8324,0,-10.7576,-10.7774,-10.7706,-10.7908,-10.7991,-10.7867,-10.7968,-10.7984,-10.796,-10.8027,-10.8,-10.8077,-10.7954,-10.797,-10.8055,-10.8029,-10.8183,-10.8008,-10.8103,-10.8108,-10.81,-10.8493,-10.8568,-10.8844,-10.836,-10.8367,-10.8371,0,-10.7939,-10.7984,-10.8194,-10.8188,-10.822,-10.8313,-10.8361,-10.8427,-10.8443,-10.8419,-10.8452,-10.8374,-10.8488,-10.834,-10.8495,-10.8378,-10.8414,-10.8408,-10.8417,-10.8419,-10.8253,-10.8504,-10.893,-10.8971,-10.8429,-10.8424,-10.842,0,-10.8228,-10.834,-10.8481,-10.8498,-10.8495,-10.8563,-10.8565,-10.8573,-10.8612,-10.8655,-10.8679,-10.8736,-10.8765,-10.8811,-10.875,-10.8648,-10.8916,-10.8761,-10.8898,-10.89,-10.8956,-10.8953,-10.9391,-10.8986,-10.8985,-10.8984,-10.8984,0,-10.8556,-10.869,-10.861,-10.8696,-10.8842,-10.8764,-10.8911,-10.8899,-10.8908,-10.8989,-10.8887,-10.8966,-10.8883,-10.8955,-10.891,-10.9045,-10.906,-10.9043,-10.9029,-10.9051,-10.9053,-10.907,-10.9048,-10.8995,-10.8993,-10.8991,-10.8989,0,-10.8901,-10.8853,-10.8998,-10.8985,-10.8985,-10.9093,-10.9081,-10.916,-10.9131,-10.9236,-10.9256,-10.921,-10.9289,-10.9235,-10.9314,-10.9283,-10.9461,-10.9421,-10.9456,-10.9443,-10.9582,-10.9569,-11.0045,-11.0103,-10.9663,-10.9668,-10.9671,0,-10.9112,-10.9212,-10.921,-10.9258,-10.9267,-10.9345,-10.9385,-10.9314,-10.936,-10.9388,-10.9464,-10.9535,-10.9586,-10.9719,-10.9692,-10.9753,-10.9712,-10.9875,-10.972,-10.9739,-10.9712,-10.9705,-10.9714,-10.9905,-10.991,-10.9914,-10.9918,0,-10.9491,-10.9464,-10.9526,-10.9581,-10.9633,-10.9673,-10.9704,-10.9749,-10.9677,-10.9735,-10.9815,-10.9856,-10.9938,-11.0009,-11.006,-11.0061,-10.9978,-10.9968,-11.0002,-11.0023,-11.0038,-11.0029,-10.9537,-10.9956,-10.9952,-10.9949,-10.9947,-10.9946,-10.9773,-10.9856,-10.9869,-10.9942,-10.9959,-10.9991,-11.0065,-11.0046,-11.0112,-11.0173,-11.0127,-11.0223,-11.0238,-11.0298,-11.0311,-11.0384,-11.0317,-11.0368,-11.038,-11.0393,-11.0411,-11.003,-11.0394,-11.0392,-11.0391,-11.039,-11.039,0,-11.0145,-11.0148,-11.0216,-11.0264,-11.0323,-11.0242,-11.0273,-11.0327,-11.0412,-11.0434,-11.0488,-11.0581,-11.0651,-11.0632,-11.0694,-11.0757,-11.072,-11.0775,-11.0768,-11.0769,-11.0468,-11.0431,-11.0804,-11.0803,-11.0803,-11.0803,-11.0803,-11.0803,-11.0345,-11.0481,-11.0455,-11.0599,-11.06,-11.0694,-11.0719,-11.0748,-11.0765,-11.0874,-11.0931,-11.0919,-11.0924,-11.0987,-11.1047,-11.1039,-11.1066,-11.1135,-11.1114,-11.0832,-11.0791,-11.0751,-11.0716,-11.1142,-11.1143,-11.1408,-11.141,-11.1412]},{"header":{"parameterUnit":"m.s-1","parameterCategory":1,"la1":30.2991,"la2":30.254,"lo1":-89.0895,"lo2":-89.0444,"dy":0.0017,"dx":0.0017,"nx":28,"ny":28,"refTime":"2024-06-18T09:00:00:Z","depth":0,"parameterNumber":3,"parameterNumberName":"V-component_of_WINDS"},"data":[0,0,0,0,0,0,0,0,0,0,0,0,0,0,0,0,0,0,0,0,0,0,0,0,0,0,0,0,0,0,0,0,0,0,0,0,0,0,0,0,0,0,0,0,0,0,0,0,0,0,0,0,0,0,0,0,0,0,0.4095,0.4096,0,0.4192,0.4194,0.4195,0.4299,0.4301,0.4302,0.4304,0.4399,0.44,0.4401,0,0,0,0,0,0,0,0,0,0,0,0,0,0.3997,0.3999,0.4095,0.4096,0.4098,0.4192,0.4194,0.4195,0.4299,0.4301,0.4303,0.4304,0.4398,0.44,0.4401,0,0,0,0,0,0,0,0,0,0,0,0,0,0.4062,0.3999,0.4095,0.4161,0.4168,0.4192,0.4194,0.4195,0.4299,0.4301,0.4303,0.4305,0.4398,0.44,0.4401,0.4367,0,0,0.4406,0.4407,0,0,0,0,0,0,0,0,0.4058,0.4065,0.415,0.4157,0.4164,0.4236,0.4194,0.4253,0.4298,0.4249,0.4304,0.4306,0.4343,0.4349,0.4362,0.4371,0.4375,0.4407,0.4408,0.4408,0.4409,0,0,0,0,0,0,0,0.4053,0.4061,0.4134,0.4151,0.416,0.4185,0.4197,0.4206,0.4282,0.4253,0.4261,0.4271,0.4347,0.436,0.4365,0.4377,0.4407,0.4408,0.4409,0.441,0.4363,0.4361,0,0,0,0,0,0,0.4039,0.4057,0.4131,0.4137,0.4116,0.4185,0.4198,0.4211,0.4282,0.4295,0.4269,0.4276,0.4356,0.4363,0.4369,0.4333,0.4408,0.441,0.4411,0.4365,0.4362,0.436,0,0,0,0,0,0,0.4037,0.4045,0.4127,0.4099,0.4111,0.4184,0.4198,0.4211,0.4225,0.4294,0.4308,0.4269,0.4358,0.4366,0.4367,0.4338,0.4411,0.4412,0.4368,0.4364,0.4361,0.4261,0,0,0,0,0,0,0.4033,0.4043,0.4031,0.4098,0.4112,0.4123,0.4196,0.4212,0.4228,0.4238,0.4298,0.431,0.4361,0.4364,0.4369,0.4341,0.4414,0.4371,0.4366,0.4362,0.4267,0.4254,0.4244,0,0,0,0,0,0.403,0.3998,0.403,0.4038,0.4099,0.4122,0.413,0.419,0.4225,0.4214,0.4258,0.4308,0.4341,0.4363,0.4369,0.4342,0.4373,0.4367,0.4363,0.4272,0.4257,0.4244,0,0,0,0,0,0,0.3924,0.4008,0.4044,0.4034,0.407,0.4139,0.4126,0.4172,0.4198,0.4205,0.4278,0.4291,0.4282,0.4313,0.4336,0.4313,0.4364,0.436,0.4293,0.4279,0.4268,0.426,0.4415,0,0,0,0,0,0.39,0.3912,0.3984,0.3968,0.3985,0.4052,0.4064,0.4108,0.4148,0.4163,0.4208,0.4243,0.4262,0.4273,0.4294,0.4273,0.4287,0.4257,0.4246,0.4236,0.4231,0.4222,0.421,0.4343,0.4343,0.4343,0,0,0.3849,0.3897,0.3899,0.3948,0.3981,0.3991,0.4064,0.4071,0.408,0.4164,0.4167,0.4201,0.4246,0.4236,0.4234,0.4261,0.4197,0.4229,0.4221,0.4221,0.4216,0.4203,0.4191,0.434,0.434,0.4341,0,0,0.3762,0.3799,0.379,0.3823,0.3873,0.3918,0.3916,0.3979,0.4005,0.4011,0.4074,0.4085,0.4115,0.4145,0.4163,0.409,0.4136,0.4094,0.4032,0.4023,0.4013,0.4004,0.3977,0.3966,0.409,0.4089,0.4089,0,0.3692,0.3711,0.3779,0.3783,0.3803,0.3882,0.3872,0.39,0.3954,0.3965,0.3995,0.4036,0.4072,0.407,0.4052,0.4065,0.4064,0.4087,0.4009,0.4001,0.3993,0.3968,0.3958,0.4084,0.4085,0.4085,0.4086,0,0.3623,0.3635,0.3621,0.3673,0.3691,0.3688,0.3755,0.3765,0.3808,0.385,0.3854,0.39,0.3932,0.3935,0.3976,0.3939,0.3954,0.3996,0.4048,0.3974,0.3952,0.3943,0.4076,0.4078,0.408,0.4081,0,0,0.3469,0.356,0.3554,0.3579,0.3641,0.3652,0.3653,0.3686,0.3692,0.3727,0.3729,0.3754,0.3794,0.3815,0.3861,0.3852,0.3791,0.3895,0.3898,0.3873,0.3752,0.3719,0.3707,0.3823,0.3821,0.382,0.3748,0,0.3392,0.34,0.3462,0.3451,0.3464,0.354,0.3541,0.3578,0.3618,0.3634,0.3677,0.3694,0.3745,0.3758,0.3754,0.3799,0.3767,0.3805,0.3824,0.3823,0.3809,0.3696,0.3661,0.359,0.374,0.3738,0.3737,0,0.3302,0.3334,0.3325,0.3389,0.3396,0.3396,0.3431,0.3446,0.349,0.352,0.3544,0.3596,0.3601,0.3652,0.3659,0.3684,0.3695,0.3719,0.3717,0.372,0.3774,0.3694,0.357,0.3558,0.3724,0.3725,0.3726,0,0.319,0.3231,0.3231,0.325,0.3324,0.3322,0.3353,0.34,0.3416,0.3447,0.3458,0.3488,0.3505,0.3527,0.3585,0.3617,0.3585,0.3641,0.3609,0.3607,0.3597,0.3596,0.3471,0.3606,0.3607,0.3607,0.3607,0,0.3097,0.3088,0.3182,0.3181,0.3174,0.3246,0.3236,0.3274,0.3315,0.3323,0.3391,0.3397,0.3475,0.3489,0.3535,0.3533,0.354,0.3563,0.3575,0.3556,0.3553,0.3564,0.3569,0.3604,0.3605,0.3605,0.3606,0,0.297,0.3032,0.3037,0.3108,0.3126,0.3117,0.3177,0.318,0.3225,0.3234,0.324,0.331,0.333,0.3392,0.3427,0.3458,0.3442,0.3466,0.3427,0.3435,0.3399,0.3401,0.3275,0.3262,0.3406,0.3404,0.3403,0,0.2905,0.2901,0.2972,0.2983,0.3011,0.3028,0.3045,0.3116,0.3131,0.3183,0.3178,0.3205,0.3229,0.3258,0.3311,0.3339,0.3363,0.3317,0.3367,0.3349,0.3361,0.336,0.336,0.3305,0.3303,0.3302,0.3301,0,0.2784,0.2816,0.2839,0.2873,0.2893,0.2923,0.2956,0.2961,0.304,0.3054,0.3077,0.3096,0.3134,0.3158,0.3195,0.3226,0.3275,0.3285,0.3279,0.3258,0.3236,0.3247,0.3396,0.3287,0.3288,0.3289,0.329,0.329,0.2686,0.2686,0.2736,0.276,0.2793,0.2824,0.283,0.2876,0.2897,0.2934,0.2974,0.2992,0.3038,0.3092,0.3119,0.3134,0.3161,0.3152,0.3149,0.3146,0.3137,0.3235,0.3141,0.3141,0.3142,0.3142,0.3142,0,0.2567,0.2604,0.2626,0.2672,0.2691,0.2739,0.2779,0.2791,0.2807,0.2846,0.2869,0.2895,0.292,0.2976,0.3006,0.3007,0.303,0.3012,0.3012,0.3018,0.3111,0.3113,0.2992,0.2992,0.2993,0.2993,0.2993,0.2993,0.2508,0.251,0.2548,0.2567,0.2604,0.2624,0.2642,0.267,0.2702,0.2729,0.2751,0.2788,0.2833,0.2867,0.2892,0.2908,0.2915,0.2889,0.2912,0.2997,0.3011,0.3025,0.3027,0.289,0.289,0.2817,0.2817,0.2816]}]]